GW2630 Weather Reports


time (UTC)temp
F
wind
direction
speed
knots
gust
knots
rain 1hr
in
rain 24hr
in
rain mn
in
humidity
%
barometer
mb
20260505122456 68 164 1.7 3.5 0.00 0.00 0.00 60 1011.5
20260505121953 68 149 0.9 0.9 0.00 0.00 0.00 62 1011.9
20260505121449 68 159 1.7 2.6 0.00 0.00 0.00 62 1011.9
20260505120945 67 160 0.9 0.9 0.00 0.00 0.00 63 1011.9
20260505120442 67 234 1.7 2.6 0.00 0.00 0.00 62 1011.8
20260505115941 67 189 0.9 1.7 0.00 0.00 0.00 63 1011.7
20260505115437 66 56 0.0 0.9 0.00 0.00 0.00 65 1011.8
20260505114935 66 164 0.9 1.7 0.00 0.00 0.00 66 1011.8
20260505114426 66 344 1.7 1.7 0.00 0.00 0.00 68 1011.4
20260505113922 65 197 0.9 0.9 0.00 0.00 0.00 68 1011.5
20260505113419 65 187 0.0 0.0 0.00 0.00 0.00 69 1011.5
20260505112914 64 183 0.0 0.0 0.00 0.00 0.00 70 1011.3
20260505112413 64 186 0.0 0.0 0.00 0.00 0.00 72 1011.6
20260505111908 64 189 0.0 0.9 0.00 0.00 0.00 71 1011.6
20260505111402 64 186 1.7 2.6 0.00 0.00 0.00 72 1011.6
20260505110859 64 201 0.9 0.9 0.00 0.00 0.00 72 1011.4
20260505110357 63 196 0.0 0.0 0.00 0.00 0.00 74 1011.4
20260505101827 62 205 1.7 1.7 0.00 0.00 0.00 74 1010.9
20260505101322 63 190 0.0 0.9 0.00 0.00 0.00 73 1011.2
20260505100818 63 197 0.0 0.9 0.00 0.00 0.00 72 1011.0
20260505100315 63 211 0.0 0.0 0.00 0.00 0.00 71 1010.8
20260505095810 64 215 0.9 1.7 0.00 0.00 0.00 70 1011.3
20260505095308 63 217 1.7 2.6 0.00 0.00 0.00 70 1010.8
20260505094804 63 240 1.7 2.6 0.00 0.00 0.00 70 1010.9
20260505094301 63 141 1.7 2.6 0.00 0.00 0.00 71 1010.9
20260505093756 63 218 0.9 1.7 0.00 0.00 0.00 72 1011.0
20260505093254 63 201 0.0 0.9 0.00 0.00 0.00 72 1011.1
20260505092751 63 300 0.9 0.9 0.00 0.00 0.00 72 1011.1
20260505092249 63 338 0.9 0.9 0.00 0.00 0.00 72 1011.1
20260505091746 63 182 0.0 0.0 0.00 0.00 0.00 73 1010.7
20260505091244 62 193 4.3 6.1 0.00 0.00 0.00 74 1010.7
20260505090742 62 201 0.9 1.7 0.00 0.00 0.00 75 1010.5
20260505090240 61 205 0.9 1.7 0.00 0.00 0.00 77 1010.3
20260505085737 60 193 0.0 0.9 0.00 0.00 0.00 78 1010.8
20260505085235 60 192 0.0 0.0 0.00 0.00 0.00 78 1010.8
20260505084732 60 190 1.7 2.6 0.00 0.00 0.00 79 1010.7
20260505084231 60 224 1.7 2.6 0.00 0.00 0.00 79 1010.6
20260505083728 60 189 0.9 0.9 0.00 0.00 0.00 79 1010.8
20260505083224 60 196 0.0 0.0 0.00 0.00 0.00 78 1010.9
20260505082720 60 194 0.0 0.0 0.00 0.00 0.00 78 1010.8
20260505082218 60 200 0.9 0.9 0.00 0.00 0.00 78 1010.9
20260505081713 60 210 0.0 0.0 0.00 0.00 0.00 77 1010.9
20260505081211 61 198 0.0 0.0 0.00 0.00 0.00 76 1010.7
20260505080708 61 194 0.9 0.9 0.00 0.00 0.00 76 1011.0
20260505080204 61 171 0.0 0.0 0.00 0.00 0.00 75 1010.8
20260505075700 62 191 0.0 0.0 0.00 0.00 0.00 75 1010.9
20260505075157 62 203 1.7 2.6 0.00 0.00 0.00 74 1010.8
20260505074654 62 201 1.7 1.7 0.00 0.00 0.00 75 1010.9
20260505074150 62 224 0.9 0.9 0.00 0.00 0.00 74 1010.7
20260505073648 62 220 0.0 0.0 0.00 0.00 0.00 74 1010.8
20260505073146 61 170 0.0 0.9 0.00 0.00 0.00 74 1011.0
20260505072641 61 225 0.9 0.9 0.00 0.00 0.00 74 1010.9
20260505072138 61 186 0.0 0.0 0.00 0.00 0.00 74 1010.7
20260505071634 60 205 0.0 0.0 0.00 0.00 0.00 74 1010.9
20260505071132 60 208 1.7 2.6 0.00 0.00 0.00 76 1010.7
20260505070629 59 189 0.0 0.0 0.00 0.00 0.00 76 1010.6
20260505070125 59 179 0.0 0.9 0.00 0.00 0.00 77 1010.5
20260505065621 58 181 0.0 0.0 0.00 0.00 0.00 78 1010.5
20260505065118 58 185 0.0 0.9 0.00 0.00 0.00 79 1010.5
20260505064615 58 198 0.0 0.0 0.00 0.00 0.00 79 1010.7
20260505064113 57 201 0.0 0.0 0.00 0.00 0.00 80 1010.3
20260505063610 57 169 0.9 0.9 0.00 0.00 0.00 81 1010.7
20260505063106 57 202 1.7 1.7 0.00 0.00 0.00 82 1010.6
20260505062603 57 182 0.0 0.0 0.00 0.00 0.00 82 1010.6
20260505062100 57 194 0.9 0.9 0.00 0.00 0.00 82 1010.5
20260505061557 57 178 0.9 1.7 0.00 0.00 0.00 81 1010.6
20260505061055 57 195 0.0 0.0 0.00 0.00 0.00 81 1010.8
20260505060552 58 195 0.0 0.0 0.00 0.00 0.00 81 1010.6
20260505060049 58 194 0.9 1.7 0.00 0.00 0.00 80 1010.3
20260505055544 58 196 0.0 0.0 0.00 0.00 0.00 80 1010.6
20260505055041 58 163 1.7 1.7 0.00 0.00 0.00 80 1010.8
20260505054539 58 203 0.9 1.7 0.00 0.00 0.00 79 1010.7
20260505054037 58 183 0.9 0.9 0.00 0.00 0.00 79 1010.9
20260505053533 58 207 0.9 1.7 0.00 0.00 0.00 79 1010.6
20260505053030 58 186 0.9 1.7 0.00 0.00 0.00 79 1010.8
20260505052527 58 186 0.9 1.7 0.00 0.00 0.00 79 1010.8
20260505052025 58 205 0.9 1.7 0.00 0.00 0.00 79 1010.8
20260505051521 58 187 4.3 5.2 0.00 0.00 0.00 78 1010.8
20260505051019 58 168 1.7 1.7 0.00 0.00 0.00 78 1010.9
20260505050517 58 169 0.0 0.0 0.00 0.00 0.00 78 1010.8
20260505041445 58 199 0.0 0.9 0.00 0.00 0.00 75 1010.9
20260505040942 59 197 0.0 0.0 0.00 0.00 0.00 75 1010.9
20260505040440 59 199 0.9 0.9 0.00 0.00 0.00 74 1011.0
20260505035936 59 199 1.7 2.6 0.00 0.00 0.00 74 1011.0
20260505035432 59 177 1.7 1.7 0.00 0.00 0.00 74 1011.1
20260505034930 59 197 1.7 2.6 0.00 0.00 0.00 74 1010.8
20260505034426 59 184 1.7 1.7 0.00 0.00 0.00 74 1010.9
20260505033923 59 197 3.5 3.5 0.00 0.00 0.00 73 1010.8
20260505033420 59 197 1.7 1.7 0.00 0.00 0.00 73 1010.9
20260505032918 59 196 2.6 6.1 0.00 0.00 0.00 73 1010.7
20260505032415 59 194 1.7 2.6 0.00 0.00 0.00 72 1010.9
20260505031911 59 204 3.5 3.5 0.00 0.00 0.00 72 1011.0
20260505031408 59 191 2.6 3.5 0.00 0.00 0.00 72 1010.9
20260505030905 59 202 2.6 3.5 0.00 0.00 0.00 72 1011.0
20260505030401 60 193 1.7 1.7 0.00 0.00 0.00 71 1010.8
20260505025857 60 191 3.5 3.5 0.00 0.00 0.00 71 1011.1
20260505025355 60 181 0.0 0.9 0.00 0.00 0.00 71 1011.3
20260505024854 60 176 0.9 1.7 0.00 0.00 0.00 71 1011.0
20260505024351 60 174 0.9 0.9 0.00 0.00 0.00 70 1011.3
20260505023848 60 173 0.9 1.7 0.00 0.00 0.00 70 1011.0
20260505023345 60 177 1.7 2.6 0.00 0.00 0.00 69 1011.1
20260505022842 60 183 0.9 0.9 0.00 0.00 0.00 69 1011.2
20260505022339 60 201 0.0 0.9 0.00 0.00 0.00 68 1011.1
20260505021836 60 182 2.6 5.2 0.00 0.00 0.00 68 1011.1
20260505021332 60 205 1.7 1.7 0.00 0.00 0.00 68 1011.2
20260505020828 61 187 1.7 2.6 0.00 0.00 0.00 67 1011.1
20260505020324 61 211 1.7 2.6 0.00 0.00 0.00 67 1011.0
20260505015821 61 165 0.9 0.9 0.00 0.00 0.00 66 1011.1
20260505015318 61 201 2.6 3.5 0.00 0.00 0.00 65 1011.1
20260505014815 62 195 1.7 1.7 0.00 0.00 0.00 64 1011.1
20260505014312 62 188 1.7 3.5 0.00 0.00 0.00 64 1011.2
20260505013808 62 192 3.5 5.2 0.00 0.00 0.00 64 1011.0
20260505013306 62 208 2.6 3.5 0.00 0.00 0.00 64 1011.1
20260505012804 62 171 0.9 1.7 0.00 0.00 0.00 63 1011.0
20260505012304 62 212 2.6 2.6 0.00 0.00 0.00 62 1011.0
20260505011757 62 195 1.7 2.6 0.00 0.00 0.00 61 1011.1
20260505011255 62 190 1.7 2.6 0.00 0.00 0.00 60 1011.1
20260505010750 63 198 2.6 2.6 0.00 0.00 0.00 59 1010.8
20260505010247 63 186 0.0 0.9 0.00 0.00 0.00 57 1010.6
20260505005743 64 181 1.7 1.7 0.00 0.00 0.00 55 1010.7
20260505005241 64 225 1.7 2.6 0.00 0.00 0.00 54 1010.6
20260505004738 65 187 1.7 5.2 0.00 0.00 0.00 52 1010.7
20260505004234 64 147 1.7 3.5 0.00 0.00 0.00 49 1010.6
20260505003731 64 181 0.0 0.9 0.00 0.00 0.00 49 1010.6
20260505003229 65 181 0.0 0.9 0.00 0.00 0.00 47 1010.4
20260505002725 65 192 0.9 1.7 0.00 0.00 0.00 48 1010.4
20260505002222 65 184 0.0 0.9 0.00 0.00 0.00 47 1010.3
20260505001720 66 179 0.0 0.9 0.00 0.00 0.00 46 1010.1
20260505001217 66 185 0.9 0.9 0.00 0.00 0.00 46 1010.4
20260505000714 66 180 0.0 0.0 0.00 0.00 0.00 46 1010.3
20260505000212 66 171 1.7 1.7 0.00 0.00 0.00 44 1010.1
20260504235708 67 185 1.7 1.7 0.00 0.00 0.00 44 1010.0
20260504235204 67 185 0.0 0.0 0.00 0.00 0.00 44 1010.1
20260504234702 68 181 0.0 0.0 0.00 0.00 0.00 42 1009.8
20260504234159 68 182 0.9 0.9 0.00 0.00 0.00 41 1010.0
20260504233655 69 178 0.0 0.0 0.00 0.00 0.00 42 1010.0
20260504233151 69 223 0.9 1.7 0.00 0.00 0.00 41 1010.0
20260504232649 69 190 3.5 6.1 0.00 0.00 0.00 40 1009.9
20260504232145 70 212 0.9 0.9 0.00 0.00 0.00 41 1009.7
20260504231642 70 172 1.7 1.7 0.00 0.00 0.00 40 1009.8
20260504231138 70 206 0.9 1.7 0.00 0.00 0.00 41 1009.6
20260504230635 70 208 0.0 0.9 0.00 0.00 0.00 39 1009.6
20260504230134 70 222 1.7 3.5 0.00 0.00 0.00 40 1009.9
20260504225632 70 209 0.9 0.9 0.00 0.00 0.00 40 1009.8
20260504225127 71 191 1.7 2.6 0.00 0.00 0.00 39 1009.9
20260504224624 71 179 0.9 0.9 0.00 0.00 0.00 38 1009.8
20260504224121 71 173 0.9 0.9 0.00 0.00 0.00 38 1009.8
20260504223618 71 272 1.7 2.6 0.00 0.00 0.00 37 1010.0
20260504223114 71 63 0.0 1.7 0.00 0.00 0.00 37 1009.6
20260504222611 71 305 1.7 2.6 0.00 0.00 0.00 37 1009.7
20260504222108 72 208 0.9 1.7 0.00 0.00 0.00 37 1009.9
20260504221605 72 240 1.7 1.7 0.00 0.00 0.00 37 1009.8
20260504221102 72 159 4.3 6.1 0.00 0.00 0.00 36 1009.9
20260504220558 72 190 0.9 0.9 0.00 0.00 0.00 37 1009.8
20260504220056 72 202 1.7 1.7 0.00 0.00 0.00 37 1009.7
20260504215552 73 200 1.7 2.6 0.00 0.00 0.00 37 1009.8
20260504215049 73 151 0.9 0.9 0.00 0.00 0.00 36 1009.8
20260504214545 73 256 1.7 1.7 0.00 0.00 0.00 36 1009.9
20260504214042 74 290 4.3 6.1 0.00 0.00 0.00 34 1009.7
20260504213538 74 340 1.7 2.6 0.00 0.00 0.00 35 1009.9
20260504213036 75 349 0.9 1.7 0.00 0.00 0.00 34 1009.7
20260504212531 75 231 0.9 0.9 0.00 0.00 0.00 33 1009.6
20260504212029 75 223 0.9 0.9 0.00 0.00 0.00 33 1009.9
20260504211526 74 235 0.9 0.9 0.00 0.00 0.00 36 1009.5
20260504211023 75 224 1.7 2.6 0.00 0.00 0.00 34 1009.8
20260504210520 74 209 1.7 5.2 0.00 0.00 0.00 34 1009.7
20260504210016 74 248 1.7 1.7 0.00 0.00 0.00 33 1009.6
20260504205515 74 189 2.6 2.6 0.00 0.00 0.00 33 1010.1
20260504205012 74 258 1.7 1.7 0.00 0.00 0.00 33 1009.9
20260504204510 76 195 1.7 2.6 0.00 0.00 0.00 33 1009.8
20260504204009 75 166 0.9 0.9 0.00 0.00 0.00 34 1009.9
20260504203506 76 203 2.6 3.5 0.00 0.00 0.00 33 1009.8
20260504203003 75 196 1.7 2.6 0.00 0.00 0.00 35 1009.7
20260504202459 75 217 3.5 5.2 0.00 0.00 0.00 33 1009.8
20260504201956 74 175 0.9 0.9 0.00 0.00 0.00 35 1009.9
20260504201453 74 62 1.7 2.6 0.00 0.00 0.00 33 1010.0
20260504200950 75 186 0.9 0.9 0.00 0.00 0.00 33 1009.8
20260504200447 74 213 6.1 7.0 0.00 0.00 0.00 33 1009.8
20260504195944 74 224 1.7 1.7 0.00 0.00 0.00 35 1009.9
20260504195439 74 330 1.7 1.7 0.00 0.00 0.00 34 1010.4
20260504194936 74 200 1.7 2.6 0.00 0.00 0.00 34 1010.0
20260504194432 73 161 0.9 1.7 0.00 0.00 0.00 34 1010.3
20260504193928 74 209 1.7 3.5 0.00 0.00 0.00 34 1010.2
20260504193426 74 59 1.7 1.7 0.00 0.00 0.00 36 1010.2
20260504192925 73 215 4.3 7.0 0.00 0.00 0.00 35 1010.5
20260504192421 73 163 3.5 6.1 0.00 0.00 0.00 37 1010.6
20260504191920 73 217 2.6 3.5 0.00 0.00 0.00 35 1010.4
20260504191418 73 203 0.0 0.0 0.00 0.00 0.00 35 1010.7
20260504190913 74 183 3.5 3.5 0.00 0.00 0.00 33 1010.7
20260504190409 73 205 0.9 0.9 0.00 0.00 0.00 34 1010.9
20260504185906 73 211 0.9 1.7 0.00 0.00 0.00 34 1011.0
20260504185403 73 215 1.7 2.6 0.00 0.00 0.00 34 1010.9
20260504184859 73 136 1.7 1.7 0.00 0.00 0.00 36 1010.9
20260504184355 73 223 0.9 1.7 0.00 0.00 0.00 37 1011.1
20260504183851 73 230 3.5 5.2 0.00 0.00 0.00 35 1011.3
20260504183348 73 199 0.9 0.9 0.00 0.00 0.00 37 1011.2
20260504182845 73 231 1.7 2.6 0.00 0.00 0.00 34 1011.5
20260504182343 72 165 1.7 2.6 0.00 0.00 0.00 35 1011.4
20260504181839 73 213 2.6 5.2 0.00 0.00 0.00 35 1011.5
20260504181337 73 186 0.9 1.7 0.00 0.00 0.00 36 1011.3
20260504180836 73 227 1.7 1.7 0.00 0.00 0.00 34 1011.5
20260504180334 73 145 0.0 0.9 0.00 0.00 0.00 35 1011.6
20260504175832 71 187 0.9 0.9 0.00 0.00 0.00 36 1011.8
20260504175328 72 217 2.6 3.5 0.00 0.00 0.00 37 1011.9
20260504174827 71 62 3.5 6.1 0.00 0.00 0.00 35 1012.0
20260504174324 71 226 2.6 2.6 0.00 0.00 0.00 36 1012.1
20260504173821 70 188 1.7 2.6 0.00 0.00 0.00 41 1012.2
20260504173317 70 164 2.6 3.5 0.00 0.00 0.00 37 1012.3
20260504172814 71 219 1.7 5.2 0.00 0.00 0.00 37 1012.2
20260504172311 71 227 0.9 2.6 0.00 0.00 0.00 40 1012.3
20260504171807 71 344 0.9 1.7 0.00 0.00 0.00 36 1012.3
20260504171304 71 207 1.7 1.7 0.00 0.00 0.00 39 1012.3
20260504170801 70 180 0.9 1.7 0.00 0.00 0.00 37 1012.5
20260504170258 70 205 5.2 6.1 0.00 0.00 0.00 41 1012.5
20260504160216 69 179 1.7 1.7 0.00 0.00 0.00 38 1013.6
20260504151144 67 210 2.6 3.5 0.00 0.00 0.00 44 1013.9
20260504150642 66 222 2.6 3.5 0.00 0.00 0.00 47 1013.8
20260504150138 66 180 1.7 2.6 0.00 0.00 0.00 45 1013.7
20260504141107 64 188 3.5 5.2 0.00 0.00 0.00 53 1014.1
20260504140604 63 251 1.7 2.6 0.00 0.00 0.00 54 1014.1
20260504130527 60 162 0.9 0.9 0.00 0.00 0.00 57 1014.7